Weather History for Chandler, OK

Change the Weather History Date:

Monday, February 4, 2013

  Actual Average (KCUH) Record (KCUH)
Temperature  
Mean Temperature 56 °F -  
Max Temperature 69 °F 47 °F 79 °F (1962)
Min Temperature 44 °F 28 °F -1 °F (1989)
Degree Days  
Heating Degree Days 8    
Growing Degree Days 6 (Base 50)    
Moisture  
Dew Point 37 °F    
Average Humidity 46    
Maximum Humidity 66    
Minimum Humidity 28    
Precipitation  
Precipitation 0.00 in - - ()
Sea Level Pressure  
Sea Level Pressure 29.88 in    
Wind  
Wind Speed 8 mph (NNE)    
Max Wind Speed 14 mph    
Max Gust Speed -    
Visibility 10 miles    
Events      
Averages and records for this station are not official NWS values.
T = Trace of Precipitation, MM = Missing Value Source: NWS Daily Summary

Daily Weather History Graph

Daily Weather History Graph

Search for Another Location

Airport:

Trip Planner

Search our weather history database for the weather conditions in past years. The results will help you decide how hot, cold, wet, or windy it might be!

Date:

Astronomy

Feb. 04, 2013 Rise Set
Actual Time 7:24 AM CST 5:58 PM CST
Civil Twilight 6:58 AM CST 6:24 PM CST
Nautical Twilight 6:27 AM CST 6:55 PM CST
Astronomical Twilight 5:57 AM CST 7:25 PM CST
Moon 1:59 AM CST (2/4) 12:25 PM CST (2/4)
Length of Visible Light 11h 26m
Length of Day
10h 33m
Last Quarter, 37% of the Moon is Illuminated
Feb 4
Last Quarter
Feb 10
New
Feb 17
First Quarter
Feb 25
Full
Mar 4
Last Quarter

Hourly Weather History & Observations

Time (CST) Temp. Windchill Dew Point Humidity Pressure Visibility Wind Dir Wind Speed Gust Speed Precip Events Conditions
12:15 AM 53.6 °F - 35.6 °F 51% 29.91 in 10.0 mi South 9.2 mph - N/A   Clear
12:35 AM 55.4 °F - 35.6 °F 47% 29.91 in 10.0 mi South 6.9 mph - N/A   Mostly Cloudy
12:55 AM 55.4 °F - 35.6 °F 47% 29.91 in 10.0 mi South 9.2 mph - N/A   Overcast
1:15 AM 55.4 °F - 35.6 °F 47% 29.90 in 10.0 mi South 9.2 mph - N/A   Mostly Cloudy
1:35 AM 53.6 °F - 35.6 °F 51% 29.90 in 10.0 mi South 8.1 mph - N/A   Mostly Cloudy
1:55 AM 53.6 °F - 35.6 °F 51% 29.89 in 10.0 mi SSE 6.9 mph - N/A   Overcast
2:15 AM 53.6 °F - 35.6 °F 51% 29.88 in 10.0 mi SSE 8.1 mph - N/A   Overcast
2:35 AM 53.6 °F - 35.6 °F 51% 29.87 in 10.0 mi SSE 10.4 mph - N/A   Mostly Cloudy
2:55 AM 53.6 °F - 35.6 °F 51% 29.86 in 10.0 mi South 9.2 mph - N/A   Scattered Clouds
3:15 AM 53.6 °F - 35.6 °F 51% 29.86 in 10.0 mi SSE 8.1 mph - N/A   Clear
4:55 AM 55.4 °F - 35.6 °F 47% 29.84 in 10.0 mi South 8.1 mph - N/A   Mostly Cloudy
5:15 AM 55.4 °F - 35.6 °F 47% 29.83 in 10.0 mi South 8.1 mph - N/A   Mostly Cloudy
5:35 AM 55.4 °F - 35.6 °F 47% 29.83 in 10.0 mi South 8.1 mph - N/A   Mostly Cloudy
5:55 AM 55.4 °F - 35.6 °F 47% 29.83 in 10.0 mi South 8.1 mph - N/A   Scattered Clouds
6:15 AM 53.6 °F - 35.6 °F 51% 29.83 in 10.0 mi South 9.2 mph - N/A   Clear
6:55 AM 53.6 °F - 37.4 °F 54% 29.84 in 10.0 mi South 5.8 mph - N/A   Scattered Clouds
7:15 AM 53.6 °F - 37.4 °F 54% 29.84 in 10.0 mi South 5.8 mph - N/A   Clear
7:35 AM 53.6 °F - 37.4 °F 54% 29.85 in 10.0 mi SSW 6.9 mph - N/A   Clear
7:55 AM 53.6 °F - 37.4 °F 54% 29.85 in 10.0 mi SSW 6.9 mph - N/A   Clear
8:15 AM 53.6 °F - 39.2 °F 58% 29.85 in 10.0 mi SW 5.8 mph - N/A   Clear
8:35 AM 55.4 °F - 41.0 °F 58% 29.86 in 10.0 mi SSW 6.9 mph - N/A   Clear
8:55 AM 59.0 °F - 41.0 °F 51% 29.86 in 10.0 mi SSW 8.1 mph - N/A   Clear
9:15 AM 59.0 °F - 41.0 °F 51% 29.88 in 10.0 mi WSW 8.1 mph - N/A   Clear
9:35 AM 59.0 °F - 41.0 °F 51% 29.88 in 10.0 mi West 4.6 mph - N/A   Clear
9:55 AM 60.8 °F - 42.8 °F 52% 29.89 in 10.0 mi West 8.1 mph - N/A   Clear
10:15 AM 60.8 °F - 41.0 °F 48% 29.89 in 10.0 mi West 8.1 mph - N/A   Clear
10:35 AM 62.6 °F - 42.8 °F 48% 29.89 in 10.0 mi WNW 10.4 mph - N/A   Clear
10:55 AM 62.6 °F - 41.0 °F 45% 29.89 in 10.0 mi West 9.2 mph - N/A   Clear
11:15 AM 64.4 °F - 42.8 °F 45% 29.88 in 10.0 mi West 8.1 mph - N/A   Clear
11:35 AM 64.4 °F - 41.0 °F 42% 29.87 in 10.0 mi WNW 6.9 mph - N/A   Clear
11:55 AM 66.2 °F - 42.8 °F 43% 29.87 in 10.0 mi West 8.1 mph - N/A   Clear
12:15 PM 68.0 °F - 41.0 °F 37% 29.87 in 10.0 mi North 9.2 mph - N/A   Clear
12:35 PM 68.0 °F - 41.0 °F 37% 29.86 in 10.0 mi North 8.1 mph - N/A   Clear
12:55 PM 68.0 °F - 41.0 °F 37% 29.85 in 10.0 mi NNW 6.9 mph - N/A   Clear
1:15 PM 68.0 °F - 41.0 °F 37% 29.85 in 10.0 mi NNW 8.1 mph - N/A   Clear
1:35 PM 68.0 °F - 37.4 °F 33% 29.84 in 10.0 mi North - - N/A   Clear
1:55 PM 68.0 °F - 37.4 °F 33% 29.84 in 10.0 mi North - - N/A   Clear
2:15 PM 68.0 °F - 37.4 °F 33% 29.83 in 10.0 mi North - - N/A   Clear
2:35 PM 69.8 °F - 37.4 °F 31% 29.83 in 10.0 mi NNE 8.1 mph - N/A   Clear
2:55 PM 69.8 °F - 35.6 °F 28% 29.83 in 10.0 mi NNE 13.8 mph - N/A   Clear
3:15 PM 69.8 °F - 35.6 °F 28% 29.84 in 10.0 mi North - - N/A   Clear
3:35 PM 69.8 °F - 35.6 °F 28% 29.84 in 10.0 mi NNE 9.2 mph - N/A   Clear
3:55 PM 68.0 °F - 35.6 °F 30% 29.84 in 10.0 mi North 9.2 mph - N/A   Clear
4:15 PM 68.0 °F - 35.6 °F 30% 29.85 in 10.0 mi NNE 8.1 mph - N/A   Clear
4:35 PM 68.0 °F - 33.8 °F 28% 29.85 in 10.0 mi NNE 10.4 mph - N/A   Clear
4:55 PM 66.2 °F - 35.6 °F 32% 29.86 in 10.0 mi North 9.2 mph - N/A   Clear
5:15 PM 64.4 °F - 35.6 °F 34% 29.86 in 10.0 mi North 5.8 mph - N/A   Clear
5:35 PM 62.6 °F - 35.6 °F 37% 29.87 in 10.0 mi North 8.1 mph - N/A   Clear
5:55 PM 60.8 °F - 33.8 °F 36% 29.88 in 10.0 mi North 6.9 mph - N/A   Clear
6:15 PM 59.0 °F - 33.8 °F 39% 29.88 in 10.0 mi North 5.8 mph - N/A   Clear
6:35 PM 55.4 °F - 33.8 °F 44% 29.90 in 10.0 mi North 4.6 mph - N/A   Clear
6:55 PM 55.4 °F - 33.8 °F 44% 29.91 in 10.0 mi North 4.6 mph - N/A   Clear
7:15 PM 55.4 °F - 33.8 °F 44% 29.91 in 10.0 mi NNE 3.5 mph - N/A   Clear
7:35 PM 53.6 °F - 33.8 °F 47% 29.91 in 10.0 mi NNE 6.9 mph - N/A   Clear
7:55 PM 53.6 °F - 33.8 °F 47% 29.92 in 10.0 mi North 4.6 mph - N/A   Clear
8:15 PM 51.8 °F - 33.8 °F 50% 29.92 in 10.0 mi NNE 4.6 mph - N/A   Clear
8:35 PM 51.8 °F - 33.8 °F 50% 29.94 in 10.0 mi NNE 5.8 mph - N/A   Clear
8:55 PM 50.0 °F - 33.8 °F 54% 29.94 in 10.0 mi NNE 6.9 mph - N/A   Clear
9:15 PM 50.0 °F - 33.8 °F 54% 29.94 in 10.0 mi NNE 5.8 mph - N/A   Clear
9:35 PM 50.0 °F - 33.8 °F 54% 29.95 in 10.0 mi NE 5.8 mph - N/A   Clear
9:55 PM 48.2 °F - 33.8 °F 58% 29.95 in 10.0 mi ENE 5.8 mph - N/A   Clear
10:15 PM 46.4 °F 44.3 °F 35.6 °F 66% 29.96 in 10.0 mi East 4.6 mph - N/A   Clear
10:35 PM 46.4 °F 44.3 °F 35.6 °F 66% 29.96 in 10.0 mi East 4.6 mph - N/A   Clear
10:55 PM 46.4 °F 44.3 °F 33.8 °F 62% 29.97 in 10.0 mi East 4.6 mph - N/A   Clear
11:15 PM 44.6 °F 42.2 °F 33.8 °F 66% 29.96 in 10.0 mi ENE 4.6 mph - N/A   Clear
11:35 PM 44.6 °F 42.2 °F 33.8 °F 66% 29.96 in 10.0 mi ENE 4.6 mph - N/A   Clear
11:55 PM 44.6 °F 41.4 °F 33.8 °F 66% 29.97 in 10.0 mi NNE 5.8 mph - N/A   Clear